Change the Weather History Date:

Sunday, September 14, 2014

  Actual Average (KSLO) Record (KSLO)
Temperature  
Mean Temperature 54 °F -  
Max Temperature 68 °F 81 °F 95 °F (1971)
Min Temperature 41 °F 58 °F 39 °F (1964)
Degree Days  
Heating Degree Days 10    
Growing Degree Days 4 (Base 50)    
Moisture  
Dew Point 45 °F    
Average Humidity 74    
Maximum Humidity 95    
Minimum Humidity 38    
Precipitation  
Precipitation 0.00 in - - ()
Sea Level Pressure  
Sea Level Pressure 30.26 in    
Wind  
Wind Speed 0 mph (North)    
Max Wind Speed 6 mph    
Max Gust Speed -    
Visibility 10 miles    
Events      
Averages and records for this station are not official NWS values.
T = Trace of Precipitation, MM = Missing Value Source: NWS Daily Summary

Daily Weather History Graph

Daily Weather History Graph

Search for Another Location

Airport or City:

Trip Planner

Search our weather history database for the weather conditions in past years. The results will help you decide how hot, cold, wet, or windy it might be!

Date:

Astronomy

Sep. 14, 2014 Rise Set
Actual Time 6:37 AM CDT 7:06 PM CDT
Civil Twilight 6:10 AM CDT 7:32 PM CDT
Nautical Twilight 5:39 AM CDT 8:03 PM CDT
Astronomical Twilight 5:06 AM CDT 8:35 PM CDT
Moon 11:02 PM CDT (9/14) 12:38 PM CDT (9/14)
Length of Visible Light 13h 22m
Length of Day
12h 28m
Waning Gibbous, 64% of the Moon is Illuminated
Sep 14
Waning Gibbous
Sep 15
Last Quarter
Sep 24
New
Oct 1
First Quarter
Oct 8
Full

Hourly Weather History & Observations

Time (CDT) Temp. Dew Point Humidity Pressure Visibility Wind Dir Wind Speed Gust Speed Precip Events Conditions
12:15 AM 44.2 °F 42.4 °F 93% 30.30 in 10.0 mi Calm Calm - N/A   Clear
12:35 AM 44.6 °F 42.8 °F 93% 30.30 in 10.0 mi Calm Calm - N/A   Clear
12:55 AM 44.4 °F 42.6 °F 93% 30.31 in 10.0 mi Calm Calm - N/A   Clear
1:15 AM 43.9 °F 42.1 °F 93% 30.31 in 4.0 mi Calm Calm - N/A   Clear
1:35 AM 43.2 °F 41.4 °F 93% 30.30 in 10.0 mi Calm Calm - N/A   Clear
1:55 AM 43.2 °F 41.4 °F 93% 30.30 in 10.0 mi Calm Calm - N/A   Clear
2:15 AM 43.3 °F 41.5 °F 93% 30.30 in 4.0 mi Calm Calm - N/A   Clear
2:35 AM 43.5 °F 41.7 °F 93% 30.29 in 10.0 mi Calm Calm - N/A   Clear
2:55 AM 43.2 °F 41.4 °F 93% 30.29 in 7.0 mi Calm Calm - N/A   Clear
3:15 AM 42.8 °F 41.0 °F 93% 30.29 in 7.0 mi Calm Calm - N/A   Clear
3:35 AM 42.8 °F 41.0 °F 93% 30.29 in 4.0 mi Calm Calm - N/A   Clear
3:55 AM 41.9 °F 40.3 °F 94% 30.28 in 1.8 mi Calm Calm - N/A   Mist
4:15 AM 41.5 °F 40.1 °F 95% 30.29 in 10.0 mi Calm Calm - N/A   Clear
4:35 AM 41.9 °F 40.3 °F 94% 30.30 in 10.0 mi Calm Calm - N/A   Clear
4:55 AM 42.3 °F 40.6 °F 94% 30.29 in 10.0 mi Calm Calm - N/A   Clear
5:15 AM 42.1 °F 40.5 °F 94% 30.30 in 10.0 mi Calm Calm - N/A   Clear
5:35 AM 41.9 °F 40.3 °F 94% 30.30 in 10.0 mi Calm Calm - N/A   Clear
5:55 AM 41.9 °F 40.1 °F 93% 30.30 in 10.0 mi Calm Calm - N/A   Clear
6:15 AM 41.7 °F 40.1 °F 94% 30.30 in 7.0 mi Calm Calm - N/A   Clear
6:35 AM 41.4 °F 39.7 °F 94% 30.30 in 10.0 mi Calm Calm - N/A   Clear
6:55 AM 41.4 °F 39.9 °F 95% 30.31 in 10.0 mi Calm Calm - N/A   Clear
7:15 AM 42.6 °F 40.8 °F 93% 30.31 in 10.0 mi Calm Calm - N/A   Clear
7:35 AM 44.2 °F 42.3 °F 93% 30.31 in 10.0 mi Calm Calm - N/A   Clear
7:55 AM 46.8 °F 44.6 °F 92% 30.31 in 10.0 mi Calm Calm - N/A   Clear
8:15 AM 49.1 °F 45.7 °F 88% 30.31 in 10.0 mi Calm Calm - N/A   Clear
8:35 AM 51.3 °F 46.0 °F 82% 30.31 in 10.0 mi Calm Calm - N/A   Clear
8:55 AM 53.2 °F 46.8 °F 79% 30.32 in 10.0 mi Calm Calm - N/A   Clear
9:15 AM 55.0 °F 47.3 °F 75% 30.32 in 10.0 mi Calm Calm - N/A   Clear
9:35 AM 57.4 °F 48.4 °F 72% 30.32 in 10.0 mi Calm Calm - N/A   Clear
9:55 AM 59.0 °F 47.5 °F 66% 30.32 in 10.0 mi Calm Calm - N/A   Clear
10:15 AM 60.3 °F 45.7 °F 59% 30.32 in 10.0 mi ENE 4.6 mph - N/A   Clear
10:35 AM 60.8 °F 43.0 °F 52% 30.32 in 10.0 mi Calm Calm - N/A   Clear
10:55 AM 61.2 °F 43.5 °F 52% 30.31 in 10.0 mi Calm Calm - N/A   Clear
11:15 AM 62.2 °F 44.2 °F 52% 30.31 in 10.0 mi NNW 4.6 mph - N/A   Clear
11:35 AM 62.1 °F 43.5 °F 51% 30.31 in 10.0 mi Calm Calm - N/A   Clear
11:55 AM 62.2 °F 43.3 °F 50% 30.30 in 10.0 mi Calm Calm - N/A   Clear
12:15 PM 62.8 °F 43.3 °F 49% 30.30 in 10.0 mi Calm Calm - N/A   Clear
12:35 PM 63.9 °F 42.8 °F 46% 30.30 in 10.0 mi Calm Calm - N/A   Clear
12:55 PM 64.9 °F 44.6 °F 48% 30.29 in 10.0 mi Calm Calm - N/A   Clear
1:15 PM 64.8 °F 43.5 °F 46% 30.28 in 10.0 mi Calm Calm - N/A   Clear
1:35 PM 66.4 °F 44.8 °F 46% 30.27 in 10.0 mi North 3.5 mph - N/A   Clear
1:55 PM 66.9 °F 44.6 °F 45% 30.26 in 10.0 mi Calm Calm - N/A   Clear
2:15 PM 67.1 °F 44.2 °F 44% 30.25 in 10.0 mi North 5.8 mph - N/A   Clear
2:35 PM 66.9 °F 44.2 °F 44% 30.25 in 10.0 mi Calm Calm - N/A   Clear
2:55 PM 67.8 °F 42.1 °F 39% 30.23 in 10.0 mi Calm Calm - N/A   Clear
3:15 PM 68.4 °F 44.1 °F 41% 30.23 in 10.0 mi Calm Calm - N/A   Clear
3:35 PM 67.5 °F 41.5 °F 39% 30.22 in 10.0 mi Calm Calm - N/A   Clear
3:55 PM 68.5 °F 44.1 °F 41% 30.21 in 10.0 mi Calm Calm - N/A   Clear
4:15 PM 68.2 °F 41.7 °F 38% 30.21 in 10.0 mi Calm Calm - N/A   Clear
4:35 PM 68.7 °F 44.6 °F 42% 30.21 in 10.0 mi Calm Calm - N/A   Clear
4:55 PM 68.7 °F 44.8 °F 42% 30.21 in 10.0 mi WSW 3.5 mph - N/A   Clear
5:15 PM 68.9 °F 44.2 °F 41% 30.21 in 10.0 mi Calm Calm - N/A   Clear
5:35 PM 68.4 °F 45.1 °F 43% 30.21 in 10.0 mi Calm Calm - N/A   Clear
5:55 PM 68.0 °F 44.8 °F 43% 30.21 in 10.0 mi Calm Calm - N/A   Clear
6:15 PM 67.3 °F 48.0 °F 50% 30.20 in 10.0 mi Calm Calm - N/A   Clear
6:35 PM 65.7 °F 51.1 °F 59% 30.20 in 10.0 mi Calm Calm - N/A   Clear
6:55 PM 63.5 °F 50.9 °F 63% 30.21 in 10.0 mi Calm Calm - N/A   Clear
7:15 PM 58.3 °F 51.8 °F 79% 30.20 in 10.0 mi Calm Calm - N/A   Clear
7:35 PM 55.6 °F 51.8 °F 87% 30.20 in 7.0 mi Calm Calm - N/A   Clear
7:55 PM 54.5 °F 50.9 °F 88% 30.20 in 10.0 mi Calm Calm - N/A   Clear
8:15 PM 53.8 °F 50.4 °F 88% 30.21 in 10.0 mi Calm Calm - N/A   Clear
8:35 PM 53.1 °F 49.6 °F 88% 30.20 in 10.0 mi Calm Calm - N/A   Clear
8:55 PM 52.3 °F 49.6 °F 91% 30.21 in 10.0 mi Calm Calm - N/A   Clear
9:15 PM 51.4 °F 49.1 °F 92% 30.21 in 10.0 mi Calm Calm - N/A   Clear
9:35 PM 51.4 °F 49.3 °F 92% 30.20 in 10.0 mi Calm Calm - N/A   Clear
9:55 PM 50.2 °F 48.2 °F 93% 30.20 in 10.0 mi Calm Calm - N/A   Clear
10:15 PM 49.6 °F 47.5 °F 92% 30.20 in 10.0 mi Calm Calm - N/A   Clear
10:35 PM 49.6 °F 47.5 °F 92% 30.20 in 10.0 mi Calm Calm - N/A   Clear
10:55 PM 49.1 °F 47.1 °F 93% 30.20 in 10.0 mi Calm Calm - N/A   Clear
11:15 PM 49.3 °F 47.3 °F 93% 30.20 in 10.0 mi Calm Calm - N/A   Clear
11:35 PM 49.1 °F 47.1 °F 93% 30.20 in 10.0 mi Calm Calm - N/A   Clear